Showing default

IRIDIUM 163, 43575

Orbit data source: Space-Track

IRIDIUM 163, 43575 is a payload satellite owned by Iridium (US) in LEO that was launched on Wed, 25 Jul 2018 UTC via an FALCON 9 launch vehicle from the Air Force Western Test Range (AFWTR). Payload-class satellites include a variety of spacecraft equipped with specific instruments for various scientific and technological missions. These include communications satellites like Starlink; space stations such as the ISS; scientific satellites like the Hubble; Earth observation satellites from companies like Planet Labs, Umbra, and HawkEye 360; GPS; miniature CubeSats for education and research; and military/defense satellites.

Loading next visibility...
Identifier
43575, 2018-061G
Orbit
LEO
Country
Flag of USUS
Related business
Manufacturer
NGIS SSG Gilbert
Mission
Operational Commercial Communications
Bus & Motor
ELITEBUS, Unknown motor
Mass
860 kg wet, 700 kg dry
Launch date (UTC)
2018-07-25 (7 years ago)
Launch vehicle
FALCON 9
Launch site
Air Force Western Test Range (AFWTR)
Object type
Payload
Rocket body
Debris
Shape & HBR
Trap Box + 2 Pan, 4.8 m
Radar Cross Section
10.154 m², Large (>1 m²)

Expand to show TLE details & history
Last TLE update: 10 hours ago

TLE from 10 hours ago
0 IRIDIUM 163
1 43575U 18061G   25351.32604731  .00000138  00000-0  42204-4 0  9990
2 43575  86.3976 132.7656 0001852  95.3397 264.8010 14.34216628387317
Epoch: 2025-12-17T07:49Z
TLE epoch observation values (Epoch: 2025-12-17T07:49:30.487Z)
Latitude
-0.00004°
Longitude
-70.80895°
Altitude
780.842 km
Speed
7.463 km/s
True Right ascension
08h 51m 03s
True Declination
0° 00' 00"
Sunlit
Object was in full shadow at epoch
Visualization orbit readout
Latitude
Unknown
Longitude
Unknown
Altitude
Unknown
Speed
Unknown
Apparent Right ascension
Unknown
Apparent Declination
Unknown
Sunlit
N/A
Visualization observer readout
Local Sidereal Time
16:41:25
Azimuth
Unknown
Elevation
Unknown
Doppler factor
Unknown
Orbital elements
Apogee altitude
775.96 km
Perigee altitude
773.311 km
Semi-major axis
7,152.772 km
Eccentricity
0.00019
Inclination
86.3976°
RAAN
132.7656°
Arg. of periapsis
95.3397°
True anomaly
264.77987°
Mean anomaly
264.801°
Eccentric anomaly
264.79043°
Mean motion
3.58783 °/min
Orbital period
100.34 mins
BSTAR
0.000042204
Loading maneuver chart data...
Computing Atmospheric mass density...
Loading historical data...
Loading historical data...
Loading historical data...
Loading historical data...
Loading historical data...
Loading historical data...
Loading historical data...

Documentation

Showing up to 5 results
|